User: anonymous   Login
Location: Lynch Observatory
(39.9540°N, 75.1861°W)
Time: 19:07:33
(UTC-04:00)
Language:

CAS-6 - Orbit

View from above orbital plane
View from above orbital plane
View from above satellite
View from above satellite

Ground track
Ground track

The orbit data is extracted from the following two-line orbital elements,

1 44881U 19093C   24114.54738029  .00003176  00000-0  39147-3 0  9991
2 44881  97.8294 192.3878 0015473 137.8359 222.4048 14.83526087234948
Epoch (UTC): 23 April 2024 13:08:13
Eccentricity: 0.0015473
inclination: 97.8294°
perigee height: 607 km
apogee height: 629 km
right ascension of ascending node: 192.3878°
argument of perigee: 137.8359°
revolutions per day: 14.83526087
mean anomaly at epoch: 222.4048°
orbit number at epoch: 23494

The dashed part of the orbit path shows where the satellite is in the earth's shadow,  

DLR